Regional Weather Roundup
Issued by NWS Kansas City/Pleasant Hill, MO

Home | Current Version | Previous Version | Graphics & Text | Print | Product List | Glossary Off
Versions: 1 2 3 4 5 6 7 8 9 10 11 12 13 14 15 16 17 18 19 20 21 22 23 24 25 26 27 28 29 30 31 32 33 34 35 36 37 38 39 40 41 42 43 44 45 46 47 48 49 50

000
ASUS43 KEAX 251910
RWREAX

WEATHER ROUNDUP FOR EASTERN KANSAS AND NORTHWEST MISSOURI
NATIONAL WEATHER SERVICE KANSAS CITY/PLEASANT HILL MO
200 PM CDT MON MAY 25 2015

KSZ040-057-103>105-MOZ028-029-037-043-252000-
...KANSAS CITY METROPOLITAN AREA...

CITY           SKY/WX    TMP DP  RH WIND       PRES   REMARKS
K.C. INTL      CLOUDY    74  65  73 S18       29.90R
K.C. DOWNTOWN  CLOUDY    77  64  64 S16       29.89S
LEES SUMMIT    PTSUNNY   76  65  68 S14G28    29.92S
OLATHE - IXD   CLOUDY    75  66  73 S18G24    29.90F
OLATHE - OJC   CLOUDY    74  66  76 S14G25    29.89F
LAWRENCE       CLOUDY    76  65  68 S18       29.87F

$$

MOZ001>008-011>017-020>025-030>033-038>040-044>046-053-054-252000-
...NORTHERN AND CENTRAL MISSOURI...

CITY           SKY/WX    TMP DP  RH WIND       PRES   REMARKS
ST. JOSEPH     PTSUNNY   78  66  66 S18G26    29.86S
MOSBY          CLOUDY    75  63  64 S15       29.90S
WARRENSBURG    PTSUNNY   77  66  69 S8        29.93S
WHITEMAN AFB   PTSUNNY   75  67  76 S8        29.93S
CLINTON        PTSUNNY   79  70  73 S13       29.94S
SEDALIA        PTSUNNY   78  67  68 S13G21    29.95S
WARSAW         NOT AVBL
CHILLICOTHE      N/A     77  65  66 S15G23    29.90S
KIRKSVILLE     SUNNY     75  65  70 S16G24    29.93S

$$

MOZ041-047>049-056>058-063>065-088>090-097-252000-
...EASTERN AND SOUTHERN MISSOURI...

CITY           SKY/WX    TMP DP  RH WIND       PRES   REMARKS
ST. LOUIS INTL PTSUNNY   84  62  47 S8        29.98F
SPIRIT OF STL  PTSUNNY   83  64  52 S8        29.96F
COLUMBIA       MOSUNNY   77  66  68 S16       29.95F
JEFFERSON CITY MOSUNNY   77  65  66 VRB3      29.95S
ROLLA          MOSUNNY   78  65  63 S12       29.96F
OSAGE BEACH    PTSUNNY   81  64  57 SW12      29.96S
SPRINGFIELD    MOSUNNY   79  65  62 S12       29.96S
BRANSON        PTSUNNY   79  66  65 SE20G25   29.99F
JOPLIN         PTSUNNY   80  67  64 S16G25    29.93F
WEST PLAINS    CLOUDY    78  65  63 S9        30.03S

$$

IAZ060-094-KSZ022-034>040-054-083-096-NEZ052-066-093-252000-
...KANSAS...SOUTHEAST NEBRASKA AND IOWA...

CITY           SKY/WX    TMP DP  RH WIND       PRES   REMARKS
TOPEKA         CLOUDY    76  66  71 S10G20    29.85F
MANHATTAN      CLOUDY    77  67  71 S10G17    29.80F
EMPORIA        PTSUNNY   79  66  64 S22G33    29.83F
CHANUTE        PTSUNNY   79  67  66 S21       29.89F
WICHITA        PTSUNNY   79  68  69 S24G33    29.80F
OMAHA          MOSUNNY   77  57  50 SW14      29.80S
LINCOLN        MOSUNNY   77  60  55 S15G21    29.80F
FALLS CITY     PTSUNNY   78  63  59 S18G28    29.83S
LAMONI         MOSUNNY   79  64  60 SW18G31   29.86S
DES MOINES     MOSUNNY   79  59  50 SW21G29   29.83S

$$




USA.gov is the U.S. government's official web portal to all federal, state and local government web resources and services.